This demonstration page uses our WeatherBlox Daily Observations layout. Learn more.

Left ArrowRight Arrow

44.89941, -97.11507

Hourly Observations for February 21, 2021

Temp ( °F °C ) Dew Point ( °F °C ) Humidity (%) Winds ( mph kmh ) Pressure ( in mb ) Visibility ( mi km ) Precip ( " mm )
12:53 am 00:53 Cloudy with Mist and Fog 23 -5 21 -6.1 92 92 S 7 11 30.04 1017 4 6 0.00 0.00
1:53 am 01:53 Cloudy with Mist and Fog 23 -5 20 -6.7 88 88 SSE 7 11 30.03 1017 4 6 0.00 0.00
2:30 am 02:30 Cloudy with Light Snow 23 -5 20 -6.7 88 88 SE 6 9 30.07 1018 3 4 0.00 0.00
2:46 am 02:46 Cloudy with Light Snow 23 -5 21 -6.1 92 92 E 3 6 30.08 1018 3 5 0.00 0.00
2:53 am 02:53 Cloudy with Mist and Fog 23 -5 21 -6.1 92 92 Calm 30.03 1017 4 6 0.00 0.00
3:01 am 03:01 Cloudy with Light Snow 23 -5 21 -6.1 92 92 SE 6 9 30.07 1018 3 4 0.00 0.00
3:18 am 03:18 Cloudy with Light Snow 23 -5 21 -6.1 92 92 VRB 5 7 30.06 1018 3 5 0.00 0.00
3:53 am 03:53 Cloudy with Mist and Fog 23 -5 21 -6.1 92 92 SE 8 13 30.01 1016 4 6 0.00 0.00
4:05 am 04:05 Cloudy with Light Snow 23 -5 21 -6.1 92 92 SE 5 7 30.05 1017 2 3 0.00 0.00
4:33 am 04:33 Cloudy with Light Snow 23 -5 21 -6.1 92 92 ESE 5 7 30.03 1017 2 2 0.00 0.00
4:39 am 04:39 Cloudy with Light Snow 23 -5 21 -6.1 92 92 SE 5 7 30.03 1017 1 2 0.00 0.00
4:53 am 04:53 Cloudy with Light Snow 24 -4.4 22 -5.6 91 91 ESE 5 7 29.98 1015 1 2 0.00 0.00
5:22 am 05:22 Cloudy with Light Snow 24 -4.4 23 -5 96 96 Calm 30.01 1016 2 2 0.01 0.25
5:31 am 05:31 Cloudy with Light Snow 25 -3.9 23 -5 92 92 Calm 30.01 1016 2 3 0.01 0.25
5:38 am 05:38 Cloudy with Light Snow 25 -3.9 23 -5 92 92 ESE 3 6 30.00 1016 3 4 0.01 0.25
5:53 am 05:53 Cloudy with Mist and Fog 25 -3.9 23 -5 92 92 NE 3 6 29.96 1015 3 5 0.01 0.25
6:40 am 06:40 Cloudy with Light Snow 27 -2.8 25 -3.9 92 92 E 5 7 29.98 1015 3 4 0.00 0.00
6:53 am 06:53 Cloudy with Light Snow 27 -2.8 25 -3.9 92 92 ENE 3 6 29.94 1014 3 5 0.00 0.00
7:31 am 07:31 Cloudy with Light Snow 28 -2.2 26 -3.3 92 92 Calm 29.98 1015 2 3 0.00 0.00
7:39 am 07:39 Cloudy with Light Snow 28 -2.2 27 -2.8 96 96 Calm 29.98 1015 1 1 0.00 0.00
7:53 am 07:53 Mostly Cloudy with Snow 28 -2.2 27 -2.8 96 96 Calm 29.95 1014 1 1 0.00 0.00
8:53 am 08:53 Cloudy with Light Snow 28 -2.2 28 -2.2 100 100 Calm 29.96 1015 1 1 0.02 0.51
9:08 am 09:08 Cloudy with Light Snow 28 -2.2 26 -3.3 92 92 WSW 5 7 29.99 1015 1 1 0.00 0.00
9:40 am 09:40 Cloudy with Light Snow 27 -2.8 25 -3.9 92 92 SE 7 11 30.00 1016 1 2 0.01 0.25
9:48 am 09:48 Cloudy with Light Snow 27 -3 25 -4 93 93 SSE 8 13 30.00 1016 1 2 0.01 0.25
9:53 am 09:53 Cloudy with Light Snow 27 -2.8 24 -4.4 89 89 SSE 8 13 29.97 1015 1 2 0.01 0.25
10:27 am 10:27 Cloudy with Light Snow 26 -3.3 25 -3.9 96 96 S 5 7 29.99 1016 1 2 0.00 0.00
10:36 am 10:36 Cloudy with Light Snow 26 -3.3 25 -3.9 96 96 SSE 3 6 29.98 1015 1 2 0.00 0.00
10:40 am 10:40 Cloudy with Light Snow 26 -3.3 25 -3.9 96 96 Calm 29.98 1015 1 1 0.00 0.00
10:53 am 10:53 Cloudy with Light Snow 26 -3.3 25 -3.9 96 96 WSW 3 6 29.96 1014 1 2 0.00 0.00
11:00 am 11:00 Cloudy with Light Snow 26 -3.3 25 -3.9 96 96 Calm 29.98 1015 1 2 0.00 0.00
11:08 am 11:08 Cloudy with Mist and Fog 27 -2.8 25 -3.9 92 92 Calm 29.98 1015 2 2 0.00 0.00
11:34 am 11:34 Cloudy with Mist and Fog 27 -2.8 25 -3.9 92 92 WSW 3 6 29.97 1015 2 3 0.00 0.00
11:45 am 11:45 Cloudy with Mist and Fog 28 -2.2 25 -3.9 88 88 W 5 7 29.98 1015 3 4 0.00 0.00
11:53 am 11:53 Cloudy with Mist and Fog 28 -2.2 25 -3.9 88 88 NW 3 6 29.94 1014 3 4 0.00 0.00
12:11 pm 12:11 Cloudy with Mist and Fog 30 -1.1 26 -3.3 85 85 Calm 29.96 1014 3 5 0.00 0.00
12:53 pm 12:53 Cloudy with Mist and Fog 30 -1.1 26 -3.3 85 85 Calm 29.92 1013 3 5 0.00 0.00
1:24 pm 13:24 Cloudy with Haze 32 0 27 -2.8 82 82 Calm 29.91 1013 4 6 0.00 0.00
1:46 pm 13:46 Cloudy with Mist and Fog 30 -1.1 27 -2.8 88 88 Calm 29.91 1013 3 5 0.00 0.00
1:53 pm 13:53 Cloudy with Mist and Fog 30 -1.1 27 -2.8 88 88 Calm 29.89 1012 4 6 0.00 0.00
2:02 pm 14:02 Cloudy with Mist and Fog 31 -0.6 28 -2.2 89 89 Calm 29.90 1013 4 6 0.00 0.00
2:22 pm 14:22 Cloudy with Mist and Fog 32 0 28 -2.2 85 85 VRB 3 6 29.90 1012 4 6 0.00 0.00
2:53 pm 14:53 Cloudy with Mist and Fog 33 0.6 29 -1.7 85 85 NW 3 6 29.87 1012 4 6 0.00 0.00
3:45 pm 15:45 Mostly Cloudy with Mist and Fog 33 0.6 29 -1.7 85 85 W 5 7 29.88 1012 6 10 0.00 0.00
3:53 pm 15:53 Mostly Cloudy with Mist and Fog 33 0.6 29 -1.7 85 85 W 5 7 29.87 1012 6 10 0.00 0.00
4:19 pm 16:19 Partly Cloudy with Mist and Fog 33 0.6 29 -1.7 85 85 W 7 11 29.87 1012 5 8 0.00 0.00
4:53 pm 16:53 Sunny with Mist and Fog 32 0 29 -1.7 88 88 W 8 13 29.86 1011 5 8 0.00 0.00
5:16 pm 17:16 Partly Cloudy with Mist and Fog 31 -0.6 28 -2.2 89 89 WSW 8 13 29.88 1012 4 6 0.00 0.00
5:53 pm 17:53 Sunny with Mist and Fog 29 -1.7 27 -2.8 92 92 WSW 6 9 29.86 1011 3 5 0.00 0.00
6:16 pm 18:16 Clear with Mist and Fog 28 -2.2 26 -3.3 92 92 S 6 9 29.88 1012 3 4 0.00 0.00
6:26 pm 18:26 Clear with Mist and Fog 27 -2.8 26 -3.3 96 96 S 7 11 29.88 1012 3 5 0.00 0.00
6:36 pm 18:36 Clear with Mist and Fog 25 -3.9 24 -4.4 96 96 SSW 6 9 29.89 1012 2 2 0.00 0.00
6:39 pm 18:39 Clear with Mist and Fog 25 -3.9 24 -4.4 96 96 SSW 6 9 29.90 1012 1 1 0.00 0.00
6:53 pm 18:53 Clear with Mist and Fog 24 -4.4 24 -4.4 100 100 SSW 3 6 29.87 1011 1 1 0.00 0.00
7:11 pm 19:11 Clear with Mist and Fog 25 -3.9 25 -3.9 100 100 S 5 7 29.90 1012 1 2 0.00 0.00
7:20 pm 19:20 Clear with Mist and Fog 24 -4.4 24 -4.4 100 100 S 5 7 29.90 1013 1 1 0.00 0.00
7:22 pm 19:22 Mostly Cloudy with Freezing Fog 24 -4.4 24 -4.4 100 100 S 5 7 29.90 1013 1 1 0.00 0.00
7:31 pm 19:31 Mostly Cloudy with Freezing Fog 23 -5 22 -5.6 96 96 S 5 7 29.91 1013 0 0 0.00 0.00
7:53 pm 19:53 Mostly Cloudy with Freezing Fog 23 -5 23 -5 100 100 SSW 7 11 29.85 1011 N/A 0.00 0.00
8:53 pm 20:53 Mostly Cloudy with Freezing Fog 20 -6.7 19 -7.2 96 96 SE 5 7 29.84 1011 0 0 0.00 0.00
9:18 pm 21:18 Mostly Cloudy with Mist and Fog 20 -6.7 19 -7.2 96 96 SE 7 11 29.89 1012 1 2 0.00 0.00
9:23 pm 21:23 Mostly Cloudy with Mist and Fog 20 -6.7 19 -7.2 96 96 SE 7 11 29.89 1012 2 3 0.00 0.00
9:31 pm 21:31 Partly Cloudy with Mist and Fog 20 -6.7 19 -7.2 96 96 SE 8 13 29.89 1012 2 3 0.00 0.00
9:41 pm 21:41 Mostly Clear with Mist and Fog 20 -6.7 18 -7.8 92 92 SSE 10 17 29.88 1012 1 2 0.00 0.00
9:53 pm 21:53 Partly Cloudy with Mist and Fog 19 -7.2 18 -7.8 96 96 SSE 9 15 29.83 1010 1 2 0.00 0.00
9:58 pm 21:58 Partly Cloudy with Mist and Fog 19 -7.2 18 -7.8 96 96 SSE 9 15 29.88 1012 2 3 0.00 0.00
10:07 pm 22:07 Mostly Clear with Mist and Fog 19 -7.2 18 -7.8 96 96 SSE 9 15 29.88 1012 4 6 0.00 0.00
10:53 pm 22:53 Clear with Mist and Fog 19 -7.2 18 -7.8 96 96 SSE 8 13 29.81 1009 5 8 0.00 0.00
11:53 pm 23:53 Clear with Mist and Fog 16 -8.9 14 -10 92 92 SSE 5 7 29.79 1009 6 10 0.00 0.00

Powered by AerisWeather